EZS8PZ EHAM-EDDP

Flight info

Callsign EZS8PZ
Flight time 0h 49m
Altitude 37000
Route ARNEM L620 HMM DCT NORTA DCT ADMOS T959 KOJEC KOJEC1R
Aircraft A320/M-SDE3FGHIRWY/LB1

Departure

Time 2026-05-07 18:03
Airport Amsterdam Airport Schiphol (EHAM)

Arrival

Time 2026-05-07 18:53
Airport Leipzig/Halle Airport (EDDP)
Time Latitude Longitude Altitude Speed Heading
2026-05-07 17:14 52.31004 4.75410 -1 ft 0 kts 148°
2026-05-07 17:37 52.31024 4.75393 -1 ft 4 kts 153°
2026-05-07 17:37 52.31042 4.75374 -1 ft 4 kts 90°
2026-05-07 17:37 52.31038 4.75343 -1 ft 1 kts 70°
2026-05-07 17:37 52.31037 4.75341 -1 ft 0 kts 70°
2026-05-07 17:46 52.31044 4.75356 -1 ft 4 kts 51°
2026-05-07 17:46 52.31060 4.75387 -1 ft 3 kts 56°
2026-05-07 17:46 52.31067 4.75404 -1 ft 0 kts 57°
2026-05-07 17:54 52.31067 4.75405 -1 ft 1 kts 57°
2026-05-07 17:54 52.31086 4.75453 -1 ft 6 kts 57°
2026-05-07 17:54 52.31130 4.75498 -1 ft 12 kts
2026-05-07 17:55 52.31214 4.75491 -1 ft 12 kts 356°
2026-05-07 17:55 52.31304 4.75482 -1 ft 14 kts 356°
2026-05-07 17:55 52.31402 4.75473 -1 ft 15 kts 357°
2026-05-07 17:55 52.31503 4.75435 -1 ft 15 kts 306°
2026-05-07 17:56 52.31505 4.75271 -1 ft 14 kts 266°
2026-05-07 17:56 52.31500 4.75125 -1 ft 12 kts 266°
2026-05-07 17:56 52.31496 4.74991 -1 ft 13 kts 267°
2026-05-07 17:56 52.31491 4.74855 -1 ft 11 kts 267°
2026-05-07 17:57 52.31489 4.74772 -1 ft 12 kts 266°
2026-05-07 17:57 52.31483 4.74608 -1 ft 14 kts 267°
2026-05-07 17:57 52.31478 4.74455 -1 ft 13 kts 266°
2026-05-07 17:57 52.31473 4.74317 -1 ft 11 kts 266°
2026-05-07 17:58 52.31453 4.74201 -1 ft 10 kts 235°
2026-05-07 17:58 52.31401 4.74143 -1 ft 9 kts 194°
2026-05-07 17:58 52.31346 4.74134 -1 ft 7 kts 184°
2026-05-07 17:58 52.31290 4.74129 -1 ft 12 kts 183°
2026-05-07 17:59 52.31190 4.74120 -1 ft 14 kts 183°
2026-05-07 17:59 52.31097 4.74111 -1 ft 13 kts 183°
2026-05-07 17:59 52.30989 4.74101 -1 ft 15 kts 183°
2026-05-07 17:59 52.30887 4.74092 -1 ft 14 kts 183°
2026-05-07 18:00 52.30797 4.74084 -1 ft 12 kts 182°
2026-05-07 18:00 52.30720 4.74078 -1 ft 10 kts 183°
2026-05-07 18:00 52.30651 4.74071 -1 ft 11 kts 183°
2026-05-07 18:00 52.30567 4.74064 -1 ft 14 kts 183°
2026-05-07 18:01 52.30477 4.74056 -1 ft 12 kts 183°
2026-05-07 18:01 52.30398 4.74049 -1 ft 11 kts 184°
2026-05-07 18:01 52.30333 4.74017 -1 ft 9 kts 202°
2026-05-07 18:01 52.30279 4.73979 -1 ft 8 kts 203°
2026-05-07 18:02 52.30192 4.73852 -2 ft 13 kts 250°
2026-05-07 18:02 52.30216 4.73742 -3 ft 9 kts 349°
2026-05-07 18:02 52.30291 4.73746 -4 ft 18 kts
2026-05-07 18:03 52.30670 4.73782 -2 ft 89 kts
2026-05-07 18:03 52.31487 4.73856 -3 ft 144 kts
2026-05-07 18:03 52.32587 4.73962 356 ft 161 kts
2026-05-07 18:03 52.33686 4.74291 1092 ft 161 kts 19°
2026-05-07 18:04 52.34786 4.74930 1518 ft 178 kts 22°
2026-05-07 18:04 52.36011 4.75707 1827 ft 202 kts 23°
2026-05-07 18:04 52.37401 4.76617 2199 ft 226 kts 27°
2026-05-07 18:04 52.38684 4.78274 2681 ft 245 kts 48°
2026-05-07 18:05 52.39880 4.80331 3496 ft 253 kts 47°
2026-05-07 18:05 52.41108 4.82432 4365 ft 259 kts 48°
2026-05-07 18:05 52.42134 4.84881 5145 ft 265 kts 71°
2026-05-07 18:05 52.42414 4.87881 5833 ft 272 kts 91°
2026-05-07 18:06 52.42436 4.90984 6039 ft 273 kts 92°
2026-05-07 18:06 52.42417 4.94092 6078 ft 272 kts 97°
2026-05-07 18:06 52.41997 4.97088 6080 ft 269 kts 113°
2026-05-07 18:06 52.41097 4.99751 6081 ft 267 kts 128°
2026-05-07 18:07 52.39808 5.01896 6082 ft 264 kts 144°
2026-05-07 18:07 52.38308 5.03633 6082 ft 263 kts 146°
2026-05-07 18:07 52.36807 5.05360 6082 ft 264 kts 146°
2026-05-07 18:07 52.35320 5.07083 6082 ft 265 kts 144°
2026-05-07 18:08 52.33968 5.09171 6553 ft 271 kts 130°
2026-05-07 18:08 52.32932 5.11740 7498 ft 273 kts 118°
2026-05-07 18:08 52.32192 5.14638 8329 ft 279 kts 112°
2026-05-07 18:08 52.31481 5.17615 9141 ft 284 kts 112°
2026-05-07 18:09 52.30750 5.20682 9964 ft 289 kts 112°
2026-05-07 18:09 52.30017 5.23761 10466 ft 304 kts 112°
2026-05-07 18:09 52.29220 5.27105 10708 ft 328 kts 112°
2026-05-07 18:09 52.28358 5.30714 11128 ft 343 kts 112°
2026-05-07 18:10 52.27492 5.34342 11796 ft 348 kts 112°
2026-05-07 18:10 52.26630 5.37948 12495 ft 352 kts 112°
2026-05-07 18:10 52.25732 5.41691 13192 ft 357 kts 112°
2026-05-07 18:10 52.24819 5.45487 13884 ft 361 kts 112°
2026-05-07 18:11 52.23899 5.49315 14514 ft 364 kts 112°
2026-05-07 18:11 52.23285 5.51866 14941 ft 366 kts 112°
2026-05-07 18:11 52.22028 5.57068 15790 ft 370 kts 112°
2026-05-07 18:11 52.21077 5.60992 16407 ft 374 kts 112°
2026-05-07 18:12 52.20114 5.64959 17038 ft 377 kts 112°
2026-05-07 18:12 52.19146 5.68946 17659 ft 380 kts 112°
2026-05-07 18:12 52.18167 5.72965 18277 ft 383 kts 112°
2026-05-07 18:12 52.17177 5.77022 18788 ft 387 kts 112°
2026-05-07 18:13 52.16179 5.81101 19317 ft 389 kts 112°
2026-05-07 18:13 52.15172 5.85221 19847 ft 392 kts 112°
2026-05-07 18:13 52.14163 5.89353 20350 ft 395 kts 112°
2026-05-07 18:13 52.13141 5.93523 20810 ft 398 kts 112°
2026-05-07 18:14 52.12104 5.97723 21287 ft 402 kts 112°
2026-05-07 18:14 52.11051 6.01964 21773 ft 405 kts 113°
2026-05-07 18:14 52.10014 6.06245 22230 ft 409 kts 109°
2026-05-07 18:14 52.09308 6.10749 22685 ft 413 kts 100°
2026-05-07 18:15 52.08844 6.15367 23138 ft 416 kts 100°
2026-05-07 18:15 52.08372 6.20024 23592 ft 419 kts 100°
2026-05-07 18:15 52.07887 6.24714 23975 ft 422 kts 100°
2026-05-07 18:15 52.07392 6.29426 24360 ft 424 kts 101°
2026-05-07 18:16 52.06889 6.34160 24742 ft 426 kts 101°
2026-05-07 18:16 52.06384 6.38923 25114 ft 429 kts 101°
2026-05-07 18:16 52.05877 6.43700 25483 ft 431 kts 101°
2026-05-07 18:16 52.05366 6.48510 25848 ft 433 kts 101°
2026-05-07 18:17 52.04851 6.53344 26209 ft 435 kts 101°
2026-05-07 18:17 52.04334 6.58194 26567 ft 437 kts 101°
2026-05-07 18:17 52.03813 6.63074 26922 ft 439 kts 101°
2026-05-07 18:17 52.03283 6.67976 27264 ft 441 kts 101°
2026-05-07 18:18 52.02744 6.72904 27623 ft 444 kts 101°
2026-05-07 18:18 52.02184 6.77845 27970 ft 446 kts 102°
2026-05-07 18:18 52.01519 6.82768 28313 ft 447 kts 104°
2026-05-07 18:18 52.00759 6.87677 28651 ft 449 kts 106°
2026-05-07 18:19 51.99953 6.92521 28964 ft 451 kts 106°
2026-05-07 18:19 51.99112 6.97434 29268 ft 453 kts 107°
2026-05-07 18:19 51.98274 7.02376 29571 ft 455 kts 106°
2026-05-07 18:19 51.97453 7.07348 29876 ft 457 kts 106°
2026-05-07 18:20 51.96637 7.12344 30170 ft 459 kts 106°
2026-05-07 18:20 51.95780 7.17336 30415 ft 461 kts 107°
2026-05-07 18:20 51.94872 7.22329 30666 ft 462 kts 108°
2026-05-07 18:20 51.93930 7.27313 30942 ft 463 kts 108°
2026-05-07 18:21 51.92973 7.32290 31294 ft 462 kts 108°
2026-05-07 18:21 51.92023 7.37246 31656 ft 460 kts 108°
2026-05-07 18:21 51.91082 7.42200 32028 ft 459 kts 108°
2026-05-07 18:21 51.90151 7.47143 32397 ft 458 kts 108°
2026-05-07 18:22 51.89228 7.52068 32749 ft 457 kts 108°
2026-05-07 18:22 51.88618 7.55323 32972 ft 456 kts 108°
2026-05-07 18:22 51.87385 7.61876 33437 ft 455 kts 108°
2026-05-07 18:22 51.86479 7.66766 33764 ft 454 kts 105°
2026-05-07 18:23 51.85892 7.71782 34097 ft 454 kts 96°
2026-05-07 18:23 51.85770 7.76897 34374 ft 454 kts 89°
2026-05-07 18:23 51.85850 7.82008 34615 ft 455 kts 89°
2026-05-07 18:23 51.85921 7.87040 34867 ft 455 kts 89°
2026-05-07 18:24 51.85985 7.92186 35051 ft 455 kts 89°
2026-05-07 18:24 51.86106 8.02431 35102 ft 456 kts 89°
2026-05-07 18:25 51.86226 8.12684 35103 ft 455 kts 89°
2026-05-07 18:25 51.86333 8.22933 35108 ft 455 kts 89°
2026-05-07 18:26 51.86433 8.33178 35105 ft 455 kts 89°
2026-05-07 18:26 51.86520 8.43405 35105 ft 454 kts 89°
2026-05-07 18:27 51.86598 8.53627 35100 ft 454 kts 89°
2026-05-07 18:27 51.86633 8.58725 34654 ft 452 kts 89°
2026-05-07 18:27 51.86669 8.63813 33988 ft 452 kts 89°
2026-05-07 18:27 51.86692 8.67191 33475 ft 452 kts 89°
2026-05-07 18:28 51.86732 8.73991 32407 ft 452 kts 89°
2026-05-07 18:28 51.86759 8.79085 31583 ft 454 kts 89°
2026-05-07 18:28 51.86784 8.84153 31148 ft 446 kts 89°
2026-05-07 18:28 51.86807 8.89145 30640 ft 441 kts 89°
2026-05-07 18:29 51.86825 8.94078 30094 ft 436 kts 89°
2026-05-07 18:29 51.86842 8.98965 29468 ft 432 kts 89°
2026-05-07 18:29 51.86860 9.03759 28862 ft 429 kts 89°
2026-05-07 18:29 51.86876 9.08566 28263 ft 425 kts 89°
2026-05-07 18:30 51.86887 9.13327 27672 ft 422 kts 90°
2026-05-07 18:30 51.86898 9.18069 27086 ft 419 kts 90°
2026-05-07 18:30 51.86905 9.22760 26511 ft 416 kts 90°
2026-05-07 18:30 51.86910 9.27425 25948 ft 413 kts 90°
2026-05-07 18:31 51.86912 9.32060 25398 ft 410 kts 90°
2026-05-07 18:31 51.86912 9.36657 25130 ft 409 kts 90°
2026-05-07 18:31 51.86914 9.41257 25098 ft 410 kts 90°
2026-05-07 18:31 51.86915 9.45890 25109 ft 410 kts 90°
2026-05-07 18:32 51.86918 9.50502 25106 ft 411 kts 90°
2026-05-07 18:32 51.86917 9.55129 25106 ft 411 kts 90°
2026-05-07 18:32 51.86911 9.59745 25106 ft 411 kts 90°
2026-05-07 18:32 51.86901 9.64367 25105 ft 411 kts 90°
2026-05-07 18:33 51.86889 9.68982 25109 ft 411 kts 90°
2026-05-07 18:33 51.86875 9.73624 25109 ft 411 kts 90°
2026-05-07 18:33 51.86856 9.78242 25098 ft 410 kts 91°
2026-05-07 18:33 51.86587 9.82841 25101 ft 410 kts 101°
2026-05-07 18:34 51.85985 9.87344 25099 ft 409 kts 103°
2026-05-07 18:34 51.85376 9.91779 25099 ft 409 kts 103°
2026-05-07 18:34 51.84753 9.96327 24794 ft 410 kts 103°
2026-05-07 18:34 51.84150 10.00751 24325 ft 406 kts 103°
2026-05-07 18:35 51.83542 10.05204 23840 ft 403 kts 103°
2026-05-07 18:35 51.82933 10.09612 23314 ft 400 kts 103°
2026-05-07 18:35 51.82326 10.13985 22763 ft 398 kts 103°
2026-05-07 18:35 51.81717 10.18335 22219 ft 395 kts 103°
2026-05-07 18:36 51.81110 10.22637 21696 ft 392 kts 103°
2026-05-07 18:36 51.80504 10.26919 21169 ft 390 kts 103°
2026-05-07 18:36 51.79904 10.31189 20654 ft 387 kts 103°
2026-05-07 18:36 51.79307 10.35426 20149 ft 385 kts 103°
2026-05-07 18:37 51.78713 10.39630 19649 ft 383 kts 103°
2026-05-07 18:37 51.78118 10.43824 19220 ft 380 kts 103°
2026-05-07 18:37 51.77539 10.47904 19082 ft 376 kts 103°
2026-05-07 18:37 51.76947 10.52071 19102 ft 376 kts 103°
2026-05-07 18:38 51.76368 10.56133 19105 ft 376 kts 103°
2026-05-07 18:38 51.75781 10.60247 19102 ft 376 kts 103°
2026-05-07 18:38 51.75193 10.64361 19101 ft 376 kts 103°
2026-05-07 18:38 51.74601 10.68470 19102 ft 376 kts 103°
2026-05-07 18:39 51.74008 10.72572 19112 ft 376 kts 103°
2026-05-07 18:39 51.73412 10.76689 19106 ft 377 kts 103°
2026-05-07 18:39 51.73016 10.79423 19107 ft 377 kts 103°
2026-05-07 18:39 51.72106 10.84875 19106 ft 377 kts 110°
2026-05-07 18:40 51.71481 10.87476 19106 ft 377 kts 112°
2026-05-07 18:40 51.70525 10.91419 19106 ft 377 kts 111°
2026-05-07 18:40 51.69577 10.95349 18926 ft 374 kts 111°
2026-05-07 18:40 51.68625 10.99286 18461 ft 372 kts 111°
2026-05-07 18:41 51.67689 11.03158 17967 ft 370 kts 111°
2026-05-07 18:41 51.66760 11.07005 17500 ft 367 kts 111°
2026-05-07 18:41 51.65846 11.10775 17057 ft 364 kts 111°
2026-05-07 18:41 51.64926 11.14554 16628 ft 361 kts 111°
2026-05-07 18:42 51.64009 11.18315 16193 ft 359 kts 111°
2026-05-07 18:42 51.63070 11.22035 15602 ft 361 kts 111°
2026-05-07 18:42 51.62106 11.25790 14990 ft 364 kts 111°
2026-05-07 18:42 51.61143 11.29516 14358 ft 355 kts 111°
2026-05-07 18:43 51.60203 11.33120 13746 ft 346 kts 111°
2026-05-07 18:43 51.59274 11.36662 13079 ft 345 kts 111°
2026-05-07 18:43 51.58495 11.40327 12420 ft 346 kts 98°
2026-05-07 18:43 51.58442 11.44169 11781 ft 345 kts 85°
2026-05-07 18:44 51.58604 11.48034 11154 ft 346 kts 85°
2026-05-07 18:44 51.58780 11.51903 10531 ft 347 kts 85°
2026-05-07 18:44 51.58962 11.55742 10138 ft 340 kts 84°
2026-05-07 18:44 51.59135 11.59438 9988 ft 319 kts 85°
2026-05-07 18:45 51.59291 11.62856 9860 ft 304 kts 85°
2026-05-07 18:45 51.59444 11.66191 9732 ft 293 kts 84°
2026-05-07 18:45 51.59576 11.69406 9532 ft 284 kts 85°
2026-05-07 18:45 51.59702 11.72557 9222 ft 281 kts 85°
2026-05-07 18:46 51.59787 11.75689 8862 ft 280 kts 92°
2026-05-07 18:46 51.59228 11.78656 8514 ft 280 kts 120°
2026-05-07 18:46 51.57886 11.80889 8148 ft 281 kts 147°
2026-05-07 18:46 51.56046 11.81896 7763 ft 281 kts 175°
2026-05-07 18:47 51.54131 11.81458 7395 ft 281 kts 200°
2026-05-07 18:47 51.52325 11.80239 7004 ft 280 kts 204°
2026-05-07 18:47 51.50463 11.79430 6635 ft 277 kts 180°
2026-05-07 18:47 51.48621 11.79979 6266 ft 272 kts 158°
2026-05-07 18:48 51.46851 11.81146 5850 ft 271 kts 155°
2026-05-07 18:48 51.45153 11.82343 5468 ft 270 kts 155°
2026-05-07 18:48 51.43445 11.83568 5077 ft 268 kts 155°
2026-05-07 18:48 51.41821 11.85006 4686 ft 265 kts 138°
2026-05-07 18:49 51.40804 11.87395 4292 ft 260 kts 107°
2026-05-07 18:49 51.40659 11.90224 3911 ft 255 kts 76°
2026-05-07 18:49 51.41353 11.92737 3761 ft 241 kts 58°
2026-05-07 18:49 51.41976 11.95146 3653 ft 230 kts 83°
2026-05-07 18:50 51.42017 11.97659 3440 ft 224 kts 87°
2026-05-07 18:50 51.42095 12.00147 3150 ft 222 kts 84°
2026-05-07 18:50 51.42209 12.02600 2851 ft 220 kts 84°
2026-05-07 18:50 51.42329 12.05035 2550 ft 218 kts 84°
2026-05-07 18:51 51.42447 12.07450 2249 ft 216 kts 84°
2026-05-07 18:51 51.42565 12.09878 1953 ft 222 kts 84°
2026-05-07 18:51 51.42679 12.12265 1646 ft 209 kts 84°
2026-05-07 18:51 51.42786 12.14502 1357 ft 193 kts 84°
2026-05-07 18:52 51.42883 12.16546 1121 ft 177 kts 84°
2026-05-07 18:52 51.42978 12.18447 897 ft 163 kts 83°
2026-05-07 18:52 51.43055 12.20171 628 ft 152 kts 83°
2026-05-07 18:52 51.43133 12.21793 462 ft 142 kts 83°
2026-05-07 18:53 51.43207 12.23287 436 ft 116 kts 86°
2026-05-07 18:53 51.43253 12.24276 438 ft 64 kts 85°
2026-05-07 18:53 51.43278 12.24813 446 ft 43 kts 85°
2026-05-07 18:53 51.43295 12.25242 450 ft 35 kts 96°
2026-05-07 18:54 51.43225 12.25546 449 ft 27 kts 114°
2026-05-07 18:54 51.43180 12.25704 451 ft 11 kts 116°
2026-05-07 18:54 51.43146 12.25782 450 ft 6 kts 141°
2026-05-07 18:54 51.43123 12.25799 450 ft 1 kts 165°
2026-05-07 18:55 51.43091 12.25805 451 ft 7 kts 175°
2026-05-07 18:55 51.43044 12.25805 451 ft 12 kts 194°
2026-05-07 18:55 51.43003 12.25613 451 ft 22 kts 264°
2026-05-07 18:55 51.42994 12.25436 451 ft 11 kts 265°
2026-05-07 18:56 51.42989 12.25343 450 ft 6 kts 265°
2026-05-07 18:56 51.42986 12.25270 450 ft 11 kts 266°
2026-05-07 18:56 51.42976 12.25133 449 ft 13 kts 250°
2026-05-07 18:56 51.42884 12.25067 449 ft 17 kts 192°
2026-05-07 18:57 51.42765 12.25021 455 ft 15 kts 193°
2026-05-07 18:57 51.42697 12.24995 459 ft 8 kts 193°
2026-05-07 18:57 51.42600 12.24957 465 ft 20 kts 194°
2026-05-07 18:57 51.42438 12.24895 475 ft 24 kts 194°
2026-05-07 18:58 51.42302 12.24843 481 ft 16 kts 193°
2026-05-07 18:58 51.42218 12.24811 486 ft 14 kts 193°
2026-05-07 18:58 51.42129 12.24776 489 ft 10 kts 193°
2026-05-07 18:58 51.42051 12.24747 491 ft 16 kts 193°
2026-05-07 18:59 51.41910 12.24691 490 ft 23 kts 193°
2026-05-07 18:59 51.41739 12.24628 479 ft 26 kts 193°
2026-05-07 18:59 51.41653 12.24492 478 ft 17 kts 260°
2026-05-07 18:59 51.41646 12.24311 473 ft 18 kts 266°
2026-05-07 19:00 51.41637 12.24112 477 ft 18 kts 265°
2026-05-07 19:00 51.41627 12.23904 473 ft 19 kts 266°
2026-05-07 19:00 51.41617 12.23688 471 ft 20 kts 266°
2026-05-07 19:00 51.41605 12.23436 467 ft 24 kts 266°
2026-05-07 19:01 51.41609 12.23173 463 ft 24 kts 285°
2026-05-07 19:01 51.41657 12.22901 456 ft 27 kts 284°
2026-05-07 19:01 51.41709 12.22598 432 ft 30 kts 285°
2026-05-07 19:01 51.41768 12.22262 430 ft 32 kts 284°
2026-05-07 19:02 51.41813 12.21990 429 ft 24 kts 285°
2026-05-07 19:02 51.41857 12.21734 429 ft 23 kts 285°
2026-05-07 19:02 51.41896 12.21507 424 ft 17 kts 285°
2026-05-07 19:02 51.41922 12.21353 434 ft 7 kts 285°
2026-05-07 19:03 51.41929 12.21335 426 ft 1 kts 327°
2026-05-07 19:03 51.41945 12.21348 429 ft 7 kts 29°
2026-05-07 19:03 51.41981 12.21366 428 ft 4 kts 16°
2026-05-07 19:03 51.41989 12.21369 430 ft 0 kts 15°
2026-05-07 19:04 51.41995 12.21372 432 ft 0 kts 14°
2026-05-07 19:04 51.42000 12.21373 434 ft 0 kts 13°
2026-05-07 19:04 51.42002 12.21374 434 ft 0 kts 13°
2026-05-07 19:04 51.42003 12.21375 434 ft 0 kts 14°